Location: Hermaringen
(48.5952°N, 10.2585°E)
Time: 08:58:28
(UTC+00:00)

A-11 Canister half - All Passes

Search period start: 19 February 2026 00:00
Search period end: 01 March 2026 00:00
Orbit: 1525 x 1682 km, 47.3° (Epoch: 18 February)

Date Brightness Start Highest point End Pass type
(mag) Time Alt. Az. Time Alt. Az. Time Alt. Az.
19 Feb - 12:45:22 10° SE 12:47:19 11° ESE 12:49:16 10° ESE daylight
19 Feb - 14:41:42 10° SSW 14:50:09 39° SE 14:58:30 10° ENE daylight
19 Feb - 16:44:57 10° WSW 16:54:17 74° SSE 17:03:33 10° E daylight
19 Feb - 18:49:49 10° W 18:59:08 82° S 19:08:31 10° ESE visible
19 Feb - 20:54:45 10° WNW 21:03:38 52° SSW 21:12:37 10° SE visible
19 Feb - 23:00:58 10° W 23:06:56 19° SW 23:13:00 10° S visible
20 Feb - 14:20:01 10° SSW 14:28:23 37° SE 14:36:38 10° ENE daylight
20 Feb - 16:23:08 10° WSW 16:32:28 73° SSE 16:41:43 10° E daylight
20 Feb - 18:27:58 10° W 18:37:18 82° S 18:46:40 10° ESE visible
20 Feb - 20:32:55 10° WNW 20:41:50 54° SSW 20:50:52 10° SE visible
20 Feb - 22:38:58 10° W 22:45:12 20° SW 22:51:31 10° S visible
21 Feb - 13:58:19 10° SSW 14:06:37 36° SE 14:14:46 10° ENE daylight
21 Feb - 16:01:18 10° WSW 16:10:39 72° SSE 16:19:53 10° E daylight
21 Feb - 18:06:08 10° W 18:15:29 83° S 18:24:50 10° E visible
21 Feb - 20:11:05 10° WNW 20:20:03 55° SSW 20:29:05 10° SE visible
21 Feb - 22:17:00 10° W 22:23:27 21° SW 22:30:01 10° S visible
22 Feb - 13:36:39 10° SSW 13:44:51 34° SE 13:52:55 10° ENE daylight
22 Feb - 15:39:29 10° WSW 15:48:50 70° SSE 15:58:03 10° E daylight
22 Feb - 17:44:17 10° W 17:53:39 83° S 18:03:00 10° E visible
22 Feb - 19:49:14 10° WNW 19:58:15 57° SSW 20:07:19 10° SE visible
22 Feb - 21:55:02 10° W 22:01:43 23° SW 22:08:30 10° S visible
23 Feb - 13:15:00 10° SSW 13:23:05 33° SE 13:31:03 10° E daylight
23 Feb - 15:17:40 10° WSW 15:27:01 69° SSE 15:36:13 10° E daylight
23 Feb - 17:22:26 10° W 17:31:49 84° S 17:41:09 10° E visible
23 Feb - 19:27:24 10° WNW 19:36:27 59° SSW 19:45:33 10° SE visible
23 Feb - 21:33:05 10° W 21:39:59 24° SW 21:46:57 10° S visible
24 Feb - 12:53:20 10° SSW 13:01:19 31° SE 13:09:09 10° E daylight
24 Feb - 14:55:52 10° WSW 15:05:12 67° SSE 15:14:23 10° E daylight
24 Feb - 17:00:35 10° W 17:09:59 84° S 17:19:19 10° E daylight
24 Feb - 19:05:34 10° WNW 19:14:39 60° SSW 19:23:46 10° SE visible
24 Feb - 21:11:09 10° W 21:18:15 25° SW 21:25:24 10° S visible
25 Feb - 12:31:41 10° SSW 12:39:34 30° SE 12:47:16 10° E daylight
25 Feb - 14:34:02 10° WSW 14:43:23 66° SSE 14:52:34 10° ENE daylight
25 Feb - 16:38:45 10° W 16:48:09 84° S 16:57:29 10° E daylight
25 Feb - 18:43:44 10° WNW 18:52:51 62° SSW 19:01:59 10° SE visible
25 Feb - 20:49:14 10° W 20:56:29 27° SW 21:03:49 10° S visible
26 Feb - 12:10:04 10° S 12:17:47 29° SE 12:25:22 10° E daylight
26 Feb - 14:12:14 10° SW 14:21:34 64° SSE 14:30:44 10° ENE daylight
26 Feb - 16:16:53 10° W 16:26:19 84° S 16:35:39 10° E daylight
26 Feb - 18:21:53 10° WNW 18:31:03 64° SSW 18:40:12 10° SE visible
26 Feb - 20:27:18 10° W 20:34:44 28° SW 20:42:13 10° S visible
27 Feb - 11:48:26 10° S 11:56:02 27° SE 12:03:28 10° E daylight
27 Feb - 13:50:25 10° SW 13:59:45 63° SSE 14:08:54 10° ENE daylight
27 Feb - 15:55:02 10° W 16:04:29 84° S 16:13:49 10° E daylight
27 Feb - 18:00:03 10° WNW 18:09:14 65° SSW 18:18:24 10° SE visible
27 Feb - 20:05:25 10° W 20:13:00 29° SW 20:20:37 10° S visible
28 Feb - 11:26:51 10° S 11:34:17 26° SE 11:41:34 10° E daylight
28 Feb - 13:28:37 10° SW 13:37:57 61° SSE 13:47:04 10° ENE daylight
28 Feb - 15:33:10 10° W 15:42:39 84° S 15:51:58 10° E daylight
28 Feb - 17:38:12 10° WNW 17:47:25 67° SSW 17:56:37 10° ESE visible
28 Feb - 19:43:30 10° W 19:51:14 31° SW 19:59:00 10° SSE visible
